Temp
27 28 29 29 30 30 30 31 32 32 32 32 32 33 33 33 32 32 33 33 33 33 32 32 32 34 34 36 34 35 36 36 36 37 37 37 38 37 37 36 34 33 34 42 44 41 39 37 38 37 39 39 39 39 37 38 41 42 42 42 43 43 39
27 27 28 28 28 28 29 28 28 30 31 31 32 31 32 31 31 31 31 32 31 33 32 32 31 32 32 33 32 33 33 34 35 35 35 36 36 37 36 37 34 33 35 34 43 41 39 34 36 35 38 37 38 37 38 37 38 40 41 41 42 43 43
27 28 28 28 27 28 28 28 29 30 30 30 31 32 32 32 32 32 32 32 32 33 33 31 30 30 32 32 31 31 32 33 33 34 33 32 34 34 36 38 36 34 32 32 36 42 39 38 36 36 38 37 37 38 38 36 37 37 38 38 41 40 40
27 27 27 27 27 28 28 28 28 29 30 30 30 30 30 32 32 32 32 32 32 32 32 31 31 31 31 31 30 30 31 31 31 31 31 30 31 32 33 34 35 35 32 33 32 38 39 41 38 37 39 38 37 37 36 36 38 38 35 35 36 36 37
26 25 25 25 25 25 26 26 27 28 29 30 30 31 31 31 30 31 32 32 33 32 32 32 31 32 31 30 29 29 30 30 29 29 30 29 30 30 31 31 32 31 32 31 31 33 39 40 40 41 40 39 36 35 34 35 35 34 34 34 35 35 35
23 24 23 24 24 24 24 25 25 26 27 28 29 29 29 28 29 30 30 30 31 31 31 31 31 32 32 31 29 30 31 30 29 29 29 29 30 30 30 30 30 31 31 31 32 32 33 38 36 37 37 38 37 35 33 30 30 30 30 30 31 32 32
21 22 22 23 22 22 22 23 23 24 25 26 27 27 26 27 29 29 29 29 29 29 29 29 29 29 30 29 29 29 29 30 30 29 28 29 29 30 30 29 30 30 30 30 29 30 32 33 35 34 34 36 36 36 36 33 30 28 29 28 28 29 31
19 20 20 21 21 21 22 22 22 23 23 24 25 25 25 26 26 26 27 27 27 27 26 26 26 26 26 26 27 27 28 29 29 30 28 30 29 29 28 29 30 29 29 29 28 29 30 32 32 34 33 32 31 30 30 31 30 29 29 27 28 29 31
18 17 17 18 18 19 20 19 19 20 19 21 23 24 24 25 25 25 25 25 26 26 24 24 25 23 23 23 23 24 25 26 27 28 29 30 29 28 28 28 29 30 29 30 29 28 29 30 30 31 30 28 28 26 28 30 29 28 31 32 30 29 30
17 15 14 15 15 15 16 16 18 18 19 22 22 23 23 24 24 24 24 23 23 24 24 22 23 22 21 22 22 23 23 24 25 26 26 28 30 28 27 27 27 28 29 29 28 28 29 27 27 29 29 28 28 30 32 30 28 27 30 31 30 31 29
13 13 13 13 12 12 13 15 16 17 20 21 23 23 22 23 23 24 23 23 23 22 24 24 23 23 22 21 21 22 22 22 23 24 25 26 26 27 28 26 26 26 27 28 28 29 28 28 27 29 29 28 29 29 28 30 29 28 29 28 27 26 30
12 12 11 11 10 10 11 13 14 17 19 21 22 23 23 23 23 23 23 23 22 23 23 23 23 23 22 21 21 20 21 21 22 22 23 24 25 25 26 27 27 26 26 26 26 27 27 28 27 28 29 28 28 28 29 28 29 28 28 27 27 28 28
11 9 10 9 8 8 10 11 13 15 18 20 22 23 23 23 23 22 22 22 22 21 21 22 22 21 22 21 21 21 21 19 19 21 22 22 23 24 25 26 27 28 27 28 27 25 25 27 28 27 28 29 28 29 26 27 27 27 27 27 27 29 29
9 8 7 7 7 8 9 9 10 14 17 19 21 21 21 21 19 20 20 20 21 21 21 21 21 21 21 22 21 21 19 19 18 19 19 20 21 21 23 24 25 26 26 27 26 26 25 26 28 27 29 29 28 26 25 26 25 26 26 25 26 29 30
6 5 5 5 6 6 6 7 10 14 17 18 18 19 20 19 19 19 19 20 20 19 19 19 19 20 20 20 20 21 20 18 18 18 18 19 19 20 21 22 22 23 24 25 25 25 25 26 27 28 28 29 28 26 27 28 26 26 26 27 28 24 23
6 4 4 5 4 4 4 6 10 13 15 16 16 18 17 17 17 17 18 18 18 18 19 20 20 19 19 19 19 20 20 20 20 18 17 17 18 19 21 22 24 25 26 25 26 26 26 27 28 29 29 29 29 28 28 28 29 28 26 25 23 22 25
4 5 4 3 3 3 3 5 7 11 13 14 16 16 15 15 16 17 16 16 17 17 18 18 18 19 19 19 18 19 20 21 21 19 18 18 18 19 20 21 23 25 26 27 28 28 28 29 29 30 30 31 30 29 29 28 25 23 25 22 20 20 22
4 4 5 4 3 3 3 4 6 8 10 13 14 15 13 14 15 14 15 15 16 16 16 17 17 18 17 17 18 20 20 21 21 19 18 17 16 16 17 19 22 23 24 26 27 27 27 28 28 29 29 30 30 30 29 25 22 24 25 21 21 19 22
3 3 3 3 3 4 2 3 4 6 9 12 13 13 13 14 14 12 12 13 13 15 15 15 16 16 16 16 18 20 21 21 20 18 17 16 16 15 15 18 20 20 21 22 23 24 24 25 26 26 26 27 29 29 28 26 25 26 24 21 21 21 22
2 0 1 3 3 2 2 2 3 5 8 11 12 13 13 13 11 9 10 11 12 12 13 13 14 15 16 17 17 17 18 19 20 18 17 17 16 15 14 19 20 20 21 21 22 22 24 24 25 25 26 26 26 27 28 27 26 26 26 22 21 21 21
-1 -0 -0 2 2 3 2 3 3 4 6 8 10 12 11 10 9 9 9 10 10 11 11 12 13 14 15 14 14 15 16 18 19 19 17 17 16 17 18 21 19 20 21 20 20 21 22 23 24 25 26 25 26 27 27 28 26 25 26 24 22 21 20
-2 -1 -1 1 2 2 2 4 3 3 4 6 8 10 10 8 8 9 9 8 9 10 10 11 12 12 13 13 13 14 16 17 18 18 17 17 20 21 20 19 19 19 19 19 20 21 21 21 22 23 24 25 25 26 26 27 27 25 25 25 25 23 21
-3 -2 -1 -0 2 4 4 3 4 4 3 5 6 8 8 9 9 10 9 7 6 8 9 11 11 12 12 12 13 14 16 16 16 16 16 19 19 19 19 18 18 18 18 18 18 19 19 20 21 21 22 23 24 25 26 27 26 25 25 24 22 19 21
-1 -1 -2 -1 1 3 3 4 4 4 4 3 4 5 8 8 8 8 7 8 7 9 10 10 10 11 11 12 12 13 14 14 14 14 16 17 17 17 17 17 16 16 16 16 17 17 17 18 21 21 22 22 24 25 25 25 24 24 23 21 14 11 10
-1 -2 -2 -1 -2 0 2 3 4 4 4 4 3 4 5 6 7 6 7 7 8 10 10 10 10 10 10 11 11 12 12 12 13 14 14 15 15 16 16 15 15 15 16 15 14 15 16 18 20 21 22 23 24 24 21 16 12 9 8 8 7 5 5
-2 -3 -2 -3 -2 -1 -0 1 2 2 4 4 4 4 5 5 6 6 7 7 7 8 8 8 9 9 9 9 10 10 9 10 11 12 13 13 14 14 15 15 15 14 14 13 14 15 15 17 20 20 22 22 22 21 18 16 11 10 8 10 10 9 7
-4 -4 -3 -3 -3 -2 -1 -0 1 2 3 4 5 5 5 5 5 6 6 7 8 8 8 8 9 8 8 8 8 8 9 9 10 11 12 14 15 15 15 15 14 14 13 13 14 15 16 18 19 21 19 17 18 19 18 16 12 11 10 12 12 10 6
-5 -5 -4 -4 -3 -2 -2 -1 0 1 2 2 2 3 3 4 4 4 5 6 6 6 7 7 8 8 8 8 8 9 9 10 11 12 12 13 14 14 14 13 13 13 13 13 14 15 16 17 18 17 18 19 18 16 16 14 12 13 11 12 12 9 7
-5 -4 -3 -2 -3 -3 -3 -2 -2 -0 2 1 1 1 1 2 3 4 4 4 5 5 5 6 6 6 6 6 5 6 6 7 9 10 11 10 10 12 13 13 13 12 12 14 14 13 14 14 15 15 16 15 14 13 12 14 12 13 12 11 12 9 9
-4 -2 -2 -3 -2 -1 -3 -3 -1 1 0 1 2 2 2 3 4 4 4 4 5 5 4 4 4 4 4 4 4 3 4 5 6 6 7 10 11 11 11 11 12 12 12 12 11 12 13 13 14 13 13 12 11 11 10 11 11 10 11 9 10 9 10
-1 -1 -1 -2 -3 -1 1 -0 -1 -1 -0 0 1 2 2 2 2 3 4 4 3 2 3 2 2 2 3 3 3 2 3 4 3 4 5 6 8 10 10 10 11 12 11 11 12 12 11 11 12 11 12 11 11 9 9 9 8 9 9 9 10 10 10
-2 -2 -1 -1 -2 -2 -2 -2 -2 -2 -1 -0 0 1 1 1 2 3 3 2 2 -1 -0 1 1 1 1 2 1 1 2 2 2 3 3 4 5 6 9 9 9 8 6 8 11 11 11 11 11 11 10 10 10 8 8 7 7 7 7 9 11 11 9
-3 -3 -3 -2 -2 -2 -3 -4 -3 -3 -2 -1 -1 -1 -1 0 1 0 0 0 -1 -2 -1 -0 -0 -0 0 0 -0 1 1 1 1 2 2 3 3 4 6 8 6 3 4 7 9 10 10 11 10 9 9 7 7 7 6 7 6 8 8 8 8 7 6
-4 -5 -5 -5 -5 -5 -5 -4 -4 -4 -4 -3 -3 -2 -1 -2 -2 -1 -1 -2 -4 -2 -3 -1 -2 -1 -1 -0 -0 -0 0 0 1 1 2 2 3 4 5 5 6 6 6 7 8 9 9 9 9 8 8 8 7 7 7 6 5 7 6 7 8 7 6
-7 -5 -6 -7 -7 -7 -6 -6 -6 -6 -6 -5 -4 -3 -3 -4 -5 -5 -3 -2 -2 -3 -3 -3 -3 -2 -2 -1 -1 -1 -1 -1 -1 0 1 1 2 2 3 4 5 5 6 6 7 7 8 8 7 7 8 8 7 7 6 6 6 6 7 7 7 7 5
-9 -8 -8 -8 -9 -8 -8 -8 -8 -8 -7 -6 -4 -5 -6 -9 -8 -7 -7 -7 -5 -5 -4 -4 -3 -3 -2 -2 -2 -2 -2 -1 -1 -1 0 1 1 0 1 2 3 4 5 4 5 5 5 5 5 6 6 8 7 5 6 7 6 6 5 5 6 6 6
MSLP
1023.83 1023.55 1023.27 1023.07 1022.91 1022.83 1022.79 1022.67 1022.59 1022.51 1022.55 1022.51 1022.47 1022.43 1022.47 1022.55 1022.63 1022.71 1022.75 1022.75 1022.79 1022.87 1022.99 1023.03 1023.03 1023.03 1023.03 1023.11 1023.27 1023.23 1023.31 1023.35 1023.43 1023.47 1023.47 1023.35 1023.31 1023.31 1023.35 1023.51 1023.55 1023.39 1022.99 1022.47 1022.47 1022.87 1023.31 1023.75 1023.99 1024.23 1024.23 1024.27 1024.35 1024.55 1024.71 1024.83 1024.75 1024.83 1024.91 1024.99 1025.03 1024.99 1025.19
1024.27 1024.03 1023.79 1023.59 1023.47 1023.35 1023.23 1023.19 1023.03 1022.87 1022.63 1022.55 1022.51 1022.47 1022.47 1022.55 1022.63 1022.71 1022.71 1022.71 1022.71 1022.67 1022.79 1022.87 1022.91 1022.87 1022.87 1022.95 1023.11 1023.15 1023.15 1023.11 1023.19 1023.23 1023.27 1023.23 1023.15 1023.07 1023.11 1023.15 1023.39 1023.23 1023.03 1022.75 1022.27 1022.67 1023.15 1023.83 1023.95 1023.95 1023.99 1024.15 1024.11 1024.31 1024.47 1024.67 1024.67 1024.67 1024.67 1024.71 1024.75 1024.75 1024.71
1024.67 1024.43 1024.15 1023.99 1023.87 1023.71 1023.59 1023.47 1023.31 1023.15 1022.99 1022.79 1022.59 1022.47 1022.39 1022.39 1022.43 1022.43 1022.47 1022.43 1022.39 1022.43 1022.47 1022.63 1022.71 1022.75 1022.75 1022.83 1022.99 1023.03 1023.03 1023.03 1023.03 1023.07 1023.19 1023.19 1023.11 1023.11 1022.99 1022.95 1023.03 1023.11 1022.99 1022.83 1022.47 1022.15 1022.55 1023.03 1023.59 1023.59 1023.39 1023.83 1023.91 1023.99 1024.19 1024.39 1024.43 1024.43 1024.51 1024.59 1024.59 1024.55 1024.47
1025.11 1024.87 1024.63 1024.43 1024.23 1024.03 1023.87 1023.75 1023.55 1023.35 1023.19 1023.07 1022.95 1022.79 1022.59 1022.39 1022.27 1022.27 1022.23 1022.23 1022.19 1022.23 1022.23 1022.27 1022.39 1022.47 1022.55 1022.67 1022.83 1022.87 1022.91 1022.91 1022.95 1023.03 1023.07 1023.15 1023.11 1023.15 1023.15 1023.11 1023.07 1023.07 1023.03 1022.83 1022.71 1022.19 1022.23 1022.19 1022.67 1023.07 1023.15 1023.43 1023.75 1023.91 1024.03 1024.11 1024.11 1024.23 1024.39 1024.47 1024.55 1024.55 1024.47
1025.55 1025.39 1025.15 1024.99 1024.83 1024.63 1024.43 1024.23 1023.99 1023.75 1023.51 1023.27 1023.11 1022.95 1022.79 1022.71 1022.55 1022.31 1022.15 1022.03 1021.99 1021.99 1022.03 1022.07 1022.11 1022.15 1022.27 1022.47 1022.63 1022.63 1022.67 1022.67 1022.83 1022.83 1022.91 1022.91 1022.95 1023.03 1023.03 1023.11 1023.07 1023.03 1023.07 1023.03 1022.79 1022.35 1022.03 1022.11 1022.19 1022.31 1022.67 1023.03 1023.43 1023.75 1023.95 1024.03 1024.11 1024.03 1024.15 1024.31 1024.31 1024.43 1024.39
1025.99 1025.83 1025.71 1025.51 1025.35 1025.15 1024.91 1024.71 1024.47 1024.23 1023.99 1023.71 1023.43 1023.27 1023.11 1022.95 1022.75 1022.55 1022.43 1022.31 1022.19 1022.11 1022.07 1022.03 1021.99 1021.95 1021.99 1022.07 1022.23 1022.23 1022.19 1022.27 1022.43 1022.59 1022.63 1022.63 1022.63 1022.63 1022.75 1022.79 1022.75 1022.75 1022.71 1022.67 1022.55 1022.39 1022.15 1022.11 1022.23 1022.35 1022.51 1022.71 1023.07 1023.27 1023.59 1023.83 1024.03 1024.23 1024.35 1024.31 1024.27 1024.19 1024.23
1026.55 1026.31 1026.15 1025.91 1025.79 1025.55 1025.35 1025.11 1024.83 1024.63 1024.39 1024.07 1023.75 1023.55 1023.43 1023.15 1022.87 1022.71 1022.55 1022.51 1022.43 1022.39 1022.31 1022.27 1022.23 1022.19 1022.15 1022.15 1022.11 1022.15 1022.11 1022.07 1022.19 1022.27 1022.35 1022.35 1022.43 1022.43 1022.47 1022.47 1022.47 1022.43 1022.47 1022.39 1022.39 1022.27 1022.11 1021.99 1021.95 1022.11 1022.19 1022.35 1022.79 1022.95 1022.87 1023.07 1023.43 1023.79 1023.79 1024.11 1024.07 1023.95 1023.87
1027.11 1026.91 1026.67 1026.43 1026.23 1025.99 1025.71 1025.47 1025.15 1024.91 1024.75 1024.43 1024.07 1023.83 1023.59 1023.31 1023.15 1022.95 1022.75 1022.67 1022.59 1022.63 1022.67 1022.67 1022.63 1022.55 1022.51 1022.47 1022.43 1022.35 1022.27 1022.19 1022.11 1022.03 1022.11 1022.03 1022.19 1022.27 1022.35 1022.31 1022.19 1022.23 1022.23 1022.23 1022.19 1022.03 1021.91 1021.87 1021.79 1021.83 1021.99 1022.39 1022.95 1023.15 1023.03 1022.87 1022.75 1022.67 1022.83 1023.43 1023.63 1023.55 1023.27
1027.55 1027.39 1027.19 1026.91 1026.71 1026.47 1026.15 1025.87 1025.55 1025.39 1025.27 1024.79 1024.27 1024.03 1023.83 1023.55 1023.39 1023.23 1023.03 1022.91 1022.75 1022.75 1022.87 1022.87 1022.79 1022.87 1022.87 1022.87 1022.83 1022.75 1022.63 1022.47 1022.35 1022.19 1021.87 1021.79 1021.91 1022.07 1022.11 1022.07 1021.91 1021.79 1021.83 1021.71 1021.63 1021.67 1021.63 1021.63 1021.47 1021.35 1021.55 1022.19 1022.35 1022.31 1022.03 1022.23 1022.67 1022.55 1022.27 1022.35 1022.71 1022.91 1023.11
1027.87 1027.75 1027.55 1027.35 1027.15 1026.91 1026.59 1026.27 1025.91 1025.83 1025.47 1024.95 1024.59 1024.23 1023.91 1023.71 1023.51 1023.31 1023.23 1023.11 1022.99 1022.83 1022.87 1022.99 1022.95 1022.99 1022.99 1022.91 1022.83 1022.75 1022.63 1022.51 1022.43 1022.35 1022.23 1021.91 1021.63 1021.75 1021.83 1021.79 1021.75 1021.59 1021.31 1021.27 1021.23 1021.07 1021.11 1021.19 1020.99 1020.83 1020.87 1021.19 1021.35 1021.55 1021.87 1022.07 1022.31 1022.51 1022.19 1022.23 1022.11 1022.03 1022.43
1028.15 1028.03 1027.79 1027.67 1027.47 1027.27 1026.91 1026.55 1026.23 1025.95 1025.47 1025.03 1024.63 1024.31 1024.03 1023.71 1023.47 1023.31 1023.15 1023.07 1022.99 1022.91 1022.71 1022.71 1022.87 1022.87 1022.87 1022.91 1022.83 1022.75 1022.67 1022.55 1022.43 1022.31 1022.19 1022.07 1022.03 1021.87 1021.63 1021.59 1021.59 1021.43 1021.27 1021.07 1020.79 1020.59 1020.67 1020.51 1020.47 1020.43 1020.55 1020.79 1021.03 1021.31 1021.55 1021.51 1021.55 1021.67 1021.83 1021.87 1021.91 1021.75 1021.47
1028.35 1028.35 1028.15 1027.99 1027.83 1027.55 1027.15 1026.75 1026.43 1026.07 1025.59 1025.11 1024.63 1024.27 1023.95 1023.63 1023.39 1023.19 1023.07 1022.91 1022.87 1022.75 1022.63 1022.63 1022.59 1022.59 1022.71 1022.79 1022.79 1022.75 1022.63 1022.55 1022.43 1022.35 1022.19 1022.07 1021.91 1021.79 1021.71 1021.59 1021.39 1021.23 1021.19 1021.11 1020.91 1020.59 1020.23 1020.19 1020.03 1020.11 1020.27 1020.43 1020.71 1020.99 1021.23 1021.31 1021.19 1021.19 1021.27 1021.31 1021.27 1020.99 1020.55
1028.63 1028.59 1028.47 1028.35 1028.07 1027.79 1027.35 1027.03 1026.67 1026.27 1025.71 1025.11 1024.55 1024.15 1023.83 1023.51 1023.27 1023.15 1023.03 1022.87 1022.87 1022.83 1022.75 1022.63 1022.51 1022.47 1022.39 1022.51 1022.55 1022.47 1022.47 1022.55 1022.43 1022.23 1022.07 1021.95 1021.79 1021.67 1021.51 1021.39 1021.23 1021.19 1021.03 1020.83 1020.75 1020.51 1020.19 1019.87 1019.79 1020.03 1019.91 1019.91 1020.35 1020.63 1020.87 1020.99 1021.07 1020.99 1020.95 1020.91 1020.83 1020.43 1020.47
1028.79 1028.79 1028.79 1028.55 1028.31 1027.91 1027.59 1027.31 1026.91 1026.39 1025.71 1025.11 1024.67 1024.35 1024.07 1023.75 1023.67 1023.51 1023.23 1023.07 1022.91 1022.75 1022.71 1022.63 1022.51 1022.31 1022.19 1022.15 1022.27 1022.27 1022.35 1022.35 1022.27 1022.11 1021.95 1021.79 1021.63 1021.43 1021.27 1021.15 1020.99 1020.91 1020.87 1020.87 1020.67 1020.23 1019.79 1019.59 1019.87 1019.71 1019.51 1019.83 1020.15 1020.47 1020.55 1020.51 1020.63 1020.63 1020.79 1020.75 1020.39 1020.19 1020.43
1028.91 1028.95 1028.83 1028.67 1028.43 1028.15 1027.79 1027.43 1026.99 1026.39 1025.75 1025.27 1024.99 1024.63 1024.27 1023.91 1023.71 1023.51 1023.31 1023.07 1022.99 1022.99 1022.87 1022.79 1022.63 1022.47 1022.27 1022.11 1022.15 1022.07 1022.19 1022.19 1022.11 1021.99 1021.83 1021.63 1021.47 1021.27 1021.07 1020.83 1020.71 1020.63 1020.59 1020.47 1020.27 1020.03 1019.71 1019.59 1019.71 1019.63 1019.55 1019.75 1019.83 1019.99 1019.99 1019.95 1020.07 1020.15 1020.31 1020.35 1020.47 1021.03 1021.31
1029.03 1028.95 1028.79 1028.63 1028.47 1028.23 1027.95 1027.51 1027.03 1026.47 1025.95 1025.63 1025.27 1024.75 1024.43 1024.07 1023.83 1023.59 1023.31 1023.19 1023.11 1022.99 1022.79 1022.55 1022.43 1022.35 1022.19 1022.03 1021.99 1021.99 1021.99 1021.91 1021.79 1021.75 1021.67 1021.51 1021.27 1020.99 1020.75 1020.47 1020.27 1020.23 1020.15 1020.03 1019.83 1019.63 1019.43 1019.27 1019.27 1019.31 1019.27 1019.35 1019.43 1019.55 1019.75 1019.95 1020.03 1020.15 1020.31 1020.43 1020.67 1020.55 1020.35
1029.11 1028.87 1028.75 1028.59 1028.43 1028.23 1027.95 1027.51 1027.15 1026.67 1026.23 1025.83 1025.35 1024.87 1024.59 1024.27 1023.91 1023.55 1023.35 1023.23 1023.11 1022.99 1022.79 1022.71 1022.55 1022.39 1022.19 1021.95 1021.87 1021.83 1021.79 1021.67 1021.51 1021.43 1021.27 1021.11 1020.87 1020.67 1020.43 1020.11 1019.95 1019.83 1019.67 1019.51 1019.39 1019.23 1019.07 1018.91 1018.83 1018.83 1018.75 1018.83 1018.95 1019.07 1019.23 1019.55 1019.75 1019.59 1019.63 1020.11 1020.35 1020.11 1019.99
1029.03 1028.87 1028.59 1028.51 1028.39 1028.19 1027.91 1027.51 1027.11 1026.83 1026.43 1025.87 1025.35 1024.91 1024.63 1024.19 1023.79 1023.59 1023.27 1023.11 1023.11 1023.03 1022.87 1022.71 1022.59 1022.43 1022.27 1022.03 1021.75 1021.59 1021.55 1021.39 1021.23 1021.15 1021.15 1021.15 1020.99 1020.75 1020.47 1019.99 1019.75 1019.55 1019.27 1019.11 1018.99 1018.83 1018.63 1018.47 1018.39 1018.31 1018.27 1018.27 1018.31 1018.43 1018.75 1018.95 1018.87 1018.59 1019.07 1019.51 1019.43 1019.43 1019.11
1029.03 1028.87 1028.63 1028.39 1028.27 1028.03 1027.87 1027.51 1027.15 1026.83 1026.43 1025.83 1025.35 1024.95 1024.51 1024.07 1023.79 1023.67 1023.67 1023.43 1023.27 1023.03 1022.83 1022.67 1022.51 1022.43 1022.27 1022.07 1021.75 1021.47 1021.27 1021.03 1020.95 1021.07 1021.07 1021.07 1020.87 1020.67 1020.31 1019.91 1019.71 1019.55 1019.15 1018.83 1018.67 1018.47 1018.35 1018.15 1018.07 1018.03 1017.99 1017.87 1017.83 1017.87 1017.95 1018.07 1018.07 1018.27 1018.43 1018.67 1018.67 1018.79 1018.95
1029.15 1029.03 1028.71 1028.35 1028.11 1027.91 1027.71 1027.47 1027.15 1026.79 1026.39 1025.87 1025.43 1024.99 1024.55 1024.31 1024.15 1024.19 1023.91 1023.67 1023.39 1023.07 1022.83 1022.71 1022.59 1022.31 1022.15 1021.91 1021.75 1021.75 1021.55 1021.31 1021.07 1020.95 1020.87 1020.79 1020.63 1020.35 1020.07 1019.75 1019.55 1019.39 1019.11 1018.83 1018.51 1018.15 1017.95 1017.79 1017.67 1017.59 1017.55 1017.43 1017.39 1017.35 1017.31 1017.27 1017.47 1017.63 1017.75 1017.95 1018.15 1018.27 1018.31
1029.43 1029.03 1028.71 1028.19 1027.99 1027.71 1027.47 1027.23 1027.03 1026.71 1026.43 1026.03 1025.55 1025.07 1024.75 1024.67 1024.59 1024.39 1024.11 1023.79 1023.47 1023.19 1022.91 1022.67 1022.51 1022.31 1022.19 1022.23 1022.15 1021.99 1021.71 1021.35 1021.03 1020.87 1020.71 1020.47 1020.23 1019.95 1019.67 1019.51 1019.35 1019.07 1018.87 1018.67 1018.39 1018.15 1017.83 1017.47 1017.23 1017.07 1016.95 1016.91 1016.83 1016.75 1016.67 1016.63 1016.79 1017.07 1017.15 1017.27 1017.59 1017.75 1017.83
1029.31 1028.83 1028.51 1028.11 1027.75 1027.43 1027.23 1026.95 1026.91 1026.71 1026.39 1026.07 1025.63 1025.27 1025.03 1024.91 1024.71 1024.39 1024.11 1023.83 1023.51 1023.15 1022.91 1022.75 1022.43 1022.35 1022.35 1022.39 1022.31 1022.07 1021.75 1021.35 1020.99 1020.71 1020.39 1020.03 1019.67 1019.43 1019.35 1019.35 1019.19 1018.99 1018.79 1018.51 1018.15 1017.75 1017.43 1017.15 1016.91 1016.67 1016.47 1016.39 1016.35 1016.23 1016.15 1016.15 1016.23 1016.51 1016.75 1016.71 1016.83 1016.99 1017.19
1029.03 1028.71 1028.31 1027.91 1027.39 1026.91 1026.75 1026.79 1026.63 1026.47 1026.31 1026.03 1025.75 1025.43 1025.11 1024.87 1024.59 1024.31 1024.15 1023.91 1023.63 1023.27 1022.91 1022.51 1022.47 1022.43 1022.35 1022.27 1022.07 1021.75 1021.35 1021.03 1020.75 1020.43 1020.11 1019.75 1019.43 1019.35 1019.35 1019.31 1019.15 1018.95 1018.67 1018.31 1017.95 1017.55 1017.07 1016.71 1016.43 1016.27 1016.11 1015.99 1015.91 1015.87 1015.83 1015.87 1015.99 1016.15 1016.35 1016.51 1016.79 1016.99 1017.11
1028.43 1028.27 1027.99 1027.59 1027.07 1026.83 1026.67 1026.55 1026.35 1026.23 1026.11 1025.99 1025.75 1025.47 1025.07 1024.75 1024.55 1024.35 1024.23 1023.87 1023.51 1023.03 1022.63 1022.51 1022.47 1022.39 1022.31 1022.15 1021.91 1021.63 1021.35 1021.07 1020.83 1020.47 1020.07 1019.75 1019.55 1019.43 1019.39 1019.23 1019.03 1018.75 1018.43 1018.07 1017.71 1017.39 1016.91 1016.47 1016.11 1015.91 1015.75 1015.55 1015.43 1015.43 1015.47 1015.59 1015.83 1015.95 1016.15 1016.47 1017.11 1017.47 1017.59
1028.39 1028.19 1027.79 1027.47 1027.27 1026.87 1026.63 1026.43 1026.23 1026.03 1025.75 1025.75 1025.59 1025.35 1025.07 1024.79 1024.51 1024.35 1024.11 1023.79 1023.27 1022.75 1022.63 1022.59 1022.55 1022.43 1022.27 1022.03 1021.79 1021.51 1021.27 1020.91 1020.59 1020.31 1020.03 1019.79 1019.55 1019.43 1019.19 1018.99 1018.75 1018.47 1018.15 1017.83 1017.55 1017.11 1016.67 1016.23 1015.95 1015.71 1015.51 1015.39 1015.27 1015.23 1015.43 1015.91 1016.47 1016.79 1017.03 1017.31 1017.63 1018.03 1018.19
1028.27 1028.03 1027.75 1027.47 1027.15 1026.91 1026.67 1026.47 1026.23 1025.91 1025.59 1025.43 1025.27 1025.07 1024.91 1024.67 1024.43 1024.19 1023.91 1023.63 1023.31 1023.03 1022.79 1022.63 1022.43 1022.27 1022.11 1021.87 1021.63 1021.43 1021.19 1020.87 1020.47 1020.19 1019.95 1019.67 1019.47 1019.23 1018.91 1018.63 1018.43 1018.23 1017.99 1017.71 1017.31 1016.91 1016.59 1016.23 1015.79 1015.59 1015.35 1015.23 1015.27 1015.39 1015.63 1015.95 1016.63 1016.95 1017.39 1017.39 1017.55 1017.83 1018.47
1028.27 1027.99 1027.67 1027.39 1027.07 1026.83 1026.55 1026.27 1025.95 1025.71 1025.43 1025.23 1024.99 1024.87 1024.67 1024.47 1024.23 1023.95 1023.75 1023.39 1022.95 1022.71 1022.51 1022.27 1022.11 1021.99 1021.95 1021.79 1021.55 1021.27 1020.95 1020.59 1020.23 1019.83 1019.43 1019.03 1018.75 1018.55 1018.43 1018.31 1018.19 1018.07 1017.79 1017.39 1017.03 1016.63 1016.31 1015.91 1015.67 1015.35 1015.31 1015.55 1015.35 1015.31 1015.47 1015.79 1016.31 1016.59 1016.91 1016.95 1017.19 1017.51 1018.35
1028.23 1027.99 1027.71 1027.35 1027.03 1026.71 1026.39 1026.15 1025.75 1025.51 1025.39 1025.27 1025.19 1025.07 1024.83 1024.55 1024.23 1023.95 1023.59 1023.27 1023.03 1022.79 1022.55 1022.31 1021.99 1021.79 1021.59 1021.31 1021.03 1020.71 1020.35 1019.99 1019.63 1019.27 1018.99 1018.75 1018.51 1018.31 1018.19 1018.19 1018.15 1017.99 1017.75 1017.43 1016.99 1016.55 1016.11 1015.71 1015.43 1015.23 1015.11 1014.95 1015.11 1015.27 1015.43 1015.79 1016.07 1016.03 1016.51 1016.71 1016.95 1017.43 1017.99
1028.19 1027.91 1027.63 1027.27 1026.95 1026.59 1026.23 1025.91 1025.67 1025.51 1025.43 1025.59 1025.51 1025.27 1024.87 1024.51 1024.19 1023.87 1023.63 1023.43 1023.23 1022.91 1022.51 1022.07 1021.67 1021.51 1021.35 1021.15 1020.91 1020.67 1020.39 1019.99 1019.55 1019.15 1018.83 1018.71 1018.63 1018.27 1017.99 1017.75 1017.55 1017.47 1017.19 1016.83 1016.51 1016.27 1015.99 1015.71 1015.39 1015.27 1015.19 1015.23 1015.27 1015.43 1015.63 1015.67 1015.95 1015.95 1016.11 1016.43 1016.47 1016.79 1016.95
1028.11 1027.75 1027.51 1027.19 1026.87 1026.59 1026.23 1025.79 1025.67 1025.71 1025.71 1025.47 1025.23 1024.95 1024.71 1024.43 1024.11 1023.87 1023.59 1023.23 1022.87 1022.51 1022.15 1021.79 1021.55 1021.35 1021.23 1021.07 1020.91 1020.71 1020.47 1020.11 1019.71 1019.47 1019.07 1018.55 1018.15 1018.03 1017.87 1017.71 1017.43 1017.15 1017.03 1016.99 1016.87 1016.47 1015.99 1015.71 1015.39 1015.31 1015.23 1015.35 1015.35 1015.51 1015.83 1015.87 1015.87 1016.07 1016.07 1016.31 1016.23 1016.51 1016.67
1027.87 1027.63 1027.47 1027.15 1026.71 1026.27 1026.11 1026.03 1025.95 1025.83 1025.59 1025.27 1024.99 1024.71 1024.43 1024.19 1023.95 1023.67 1023.31 1023.03 1022.79 1022.35 1021.91 1021.71 1021.51 1021.35 1021.11 1021.11 1020.87 1020.79 1020.51 1020.23 1020.03 1019.79 1019.35 1018.99 1018.43 1017.99 1017.75 1017.59 1017.31 1017.11 1017.07 1016.95 1016.55 1016.31 1016.11 1015.95 1015.67 1015.47 1015.19 1015.27 1015.27 1015.59 1015.87 1016.07 1016.23 1016.27 1016.19 1016.11 1015.99 1016.11 1016.43
1027.59 1027.35 1027.15 1026.91 1026.67 1026.39 1026.07 1025.99 1025.87 1025.75 1025.51 1025.19 1024.83 1024.55 1024.35 1024.11 1023.83 1023.51 1023.23 1023.15 1022.99 1022.71 1022.27 1021.79 1021.51 1021.31 1021.23 1021.03 1020.99 1020.83 1020.55 1020.43 1020.19 1019.87 1019.59 1019.19 1018.79 1018.35 1017.71 1017.51 1017.35 1017.55 1017.83 1017.23 1016.55 1016.23 1015.99 1015.87 1015.71 1015.55 1015.47 1015.43 1015.47 1015.75 1015.91 1016.11 1016.31 1016.31 1016.27 1016.11 1015.91 1015.99 1016.27
1027.23 1027.07 1026.91 1026.75 1026.59 1026.39 1026.23 1026.03 1025.87 1025.67 1025.35 1025.07 1024.79 1024.51 1024.27 1023.95 1023.71 1023.47 1023.35 1023.19 1022.99 1022.51 1021.99 1021.75 1021.55 1021.39 1021.19 1021.07 1020.95 1020.79 1020.67 1020.51 1020.27 1019.99 1019.71 1019.35 1019.03 1018.67 1018.15 1017.75 1017.91 1018.19 1017.95 1017.35 1016.83 1016.47 1016.11 1015.91 1015.87 1015.75 1015.75 1015.79 1015.99 1016.03 1016.03 1016.03 1016.27 1016.15 1016.19 1016.15 1016.15 1016.35 1016.67
1026.95 1026.87 1026.75 1026.63 1026.51 1026.35 1026.19 1025.99 1025.83 1025.63 1025.39 1025.15 1024.83 1024.47 1024.15 1023.95 1023.71 1023.51 1023.35 1023.19 1022.91 1022.39 1022.11 1021.71 1021.59 1021.35 1021.19 1021.07 1020.91 1020.83 1020.67 1020.51 1020.23 1020.03 1019.79 1019.47 1019.15 1018.75 1018.35 1018.15 1017.95 1017.79 1017.47 1017.07 1016.79 1016.47 1016.11 1016.15 1016.11 1015.95 1015.87 1015.87 1015.95 1015.95 1015.99 1016.11 1016.23 1016.19 1016.35 1016.23 1016.07 1016.31 1016.95
1026.43 1026.47 1026.51 1026.51 1026.35 1026.23 1026.11 1025.95 1025.79 1025.59 1025.35 1025.07 1024.75 1024.35 1024.19 1024.11 1023.75 1023.15 1022.79 1022.63 1022.51 1022.27 1022.03 1021.71 1021.55 1021.35 1021.19 1021.03 1020.95 1020.83 1020.71 1020.55 1020.31 1020.07 1019.79 1019.51 1019.23 1018.99 1018.63 1018.27 1017.91 1017.63 1017.35 1017.27 1016.99 1016.71 1016.43 1016.27 1016.27 1016.19 1015.99 1015.79 1015.87 1015.91 1015.99 1015.95 1016.07 1016.19 1016.07 1016.15 1016.27 1016.51 1017.07
1026.27 1026.19 1026.23 1026.31 1026.23 1026.07 1025.99 1025.91 1025.71 1025.47 1025.19 1024.87 1024.47 1024.35 1024.35 1024.07 1023.55 1023.27 1023.07 1022.87 1022.67 1022.39 1022.19 1021.99 1021.75 1021.47 1021.27 1021.11 1021.11 1020.91 1020.75 1020.51 1020.35 1020.11 1019.83 1019.63 1019.43 1019.15 1018.83 1018.55 1018.11 1017.75 1017.47 1017.35 1017.23 1017.03 1016.87 1016.83 1016.63 1016.47 1016.35 1016.15 1016.11 1016.19 1016.07 1015.91 1016.23 1016.31 1016.51 1016.55 1016.67 1016.75 1016.99
Wind_Speed
9 9 8 7 7 6 5 4 3 1 2 3 3 3 3 2 3 5 5 5 6 5 5 6 6 8 7 6 5 5 5 6 7 7 7 6 7 7 7 8 8 10 9 8 3 3 3 4 4 4 6 6 5 5 5 8 8 8 8 9 9 10 15
9 8 9 8 8 7 6 5 4 4 3 4 5 5 4 4 5 6 6 7 7 7 6 6 7 8 7 6 7 7 7 6 7 7 7 7 7 7 7 8 8 9 9 9 6 7 4 3 5 4 6 7 7 6 6 8 8 7 8 8 8 8 9
10 9 9 8 8 7 7 7 6 5 4 3 4 5 6 6 7 8 8 9 9 9 7 7 8 7 7 5 6 7 7 7 7 6 7 7 7 8 8 8 9 7 9 9 9 8 7 7 6 7 7 7 6 5 6 7 8 7 6 6 7 7 6
10 10 9 9 9 9 8 8 7 6 5 5 4 3 4 5 6 7 8 8 8 8 7 7 7 8 7 6 7 7 7 6 6 7 6 7 7 7 8 8 8 9 8 8 9 9 9 8 8 8 7 5 5 5 5 6 6 6 5 5 6 6 6
9 9 9 9 9 9 9 9 8 8 7 6 6 5 4 4 3 4 5 5 6 7 7 7 8 8 7 7 7 7 8 7 8 7 7 8 7 7 7 6 7 8 8 9 10 8 8 8 7 7 7 8 7 6 5 5 6 5 5 5 5 6 6
9 8 9 9 9 9 8 8 8 8 8 7 7 6 6 5 4 3 3 3 4 4 5 5 6 6 6 6 8 8 8 8 8 8 9 9 8 8 7 8 8 8 9 10 10 9 9 8 8 7 7 7 8 8 7 5 4 3 3 4 5 6 5
9 9 9 9 9 9 9 8 8 7 8 8 8 8 7 6 6 5 4 3 3 3 3 3 4 4 5 6 6 6 7 6 7 7 8 9 8 8 7 8 8 8 9 9 9 9 9 9 8 8 9 7 7 8 8 7 5 6 6 6 6 6 5
9 9 8 8 8 9 8 8 8 8 8 9 8 8 7 7 6 6 5 5 4 3 3 3 3 3 3 4 4 5 6 7 7 7 7 8 7 7 8 8 8 8 8 9 9 9 9 8 9 7 7 2 5 5 6 7 7 9 7 7 7 8 7
8 8 8 8 8 9 8 7 6 6 8 9 9 8 7 7 7 6 6 5 4 3 2 3 3 3 3 4 5 7 7 7 7 6 9 8 7 7 8 8 8 8 8 9 9 9 8 9 9 9 8 7 8 10 10 6 7 8 6 5 6 7 7
7 8 8 8 9 8 7 6 5 9 16 13 9 9 7 7 6 6 6 6 6 5 2 1 1 2 3 5 6 6 7 7 9 10 9 8 8 8 8 8 9 9 9 8 9 10 8 10 11 10 10 9 9 8 7 7 7 9 8 6 7 6 6
7 8 8 8 8 9 7 7 6 14 16 16 16 11 8 7 7 7 6 6 6 6 6 4 2 2 2 3 5 5 6 7 8 8 10 12 13 12 10 9 10 10 9 9 10 9 9 11 11 10 9 9 8 8 9 9 8 8 7 8 8 10 5
7 7 8 8 8 8 8 8 11 16 17 17 16 13 9 8 7 7 6 6 6 6 5 6 6 5 3 3 4 4 4 5 7 8 9 10 11 14 16 17 14 10 10 10 10 10 11 10 11 9 8 9 8 8 9 10 10 9 9 10 10 10 10
7 7 8 8 9 8 8 8 13 16 17 17 15 14 11 7 7 7 7 6 6 7 7 7 7 7 6 3 5 4 4 4 6 8 9 10 11 12 14 16 19 20 15 11 12 13 12 11 9 9 9 8 7 7 9 9 10 10 9 10 11 10 9
7 7 7 8 8 8 8 9 12 17 17 16 15 15 14 8 6 6 6 7 7 7 7 7 7 7 6 6 4 4 4 4 5 6 6 6 6 6 9 12 16 18 21 19 15 14 15 12 8 11 8 4 7 9 10 10 10 9 9 11 12 8 4
7 6 7 7 8 8 8 8 15 16 16 15 16 17 14 9 7 6 7 7 6 6 6 6 6 7 8 7 6 5 4 6 6 7 7 7 8 8 8 8 9 9 9 11 13 16 16 13 10 10 11 7 7 9 10 9 9 9 9 8 2 2 1
6 7 7 7 8 7 8 8 14 16 16 17 17 17 10 8 8 7 7 7 7 6 6 6 6 7 8 8 8 6 7 8 7 8 9 9 9 9 9 9 9 12 13 12 12 12 13 13 13 14 12 11 9 8 8 8 7 7 6 7 7 10 7
7 7 8 9 8 8 8 8 11 14 16 16 16 13 8 9 7 7 7 7 7 6 6 6 7 7 7 8 8 8 9 11 12 10 10 10 10 10 10 10 8 11 15 17 19 20 22 22 22 22 23 23 23 15 10 9 10 12 10 9 9 10 9
8 8 8 8 8 8 9 9 10 14 14 15 15 13 9 8 7 8 8 7 6 6 6 7 11 10 8 8 6 8 12 14 11 9 9 9 11 14 12 12 9 7 9 16 18 20 21 22 22 22 23 24 23 24 16 11 14 11 9 10 11 11 10
7 8 8 7 8 11 10 9 9 12 13 14 14 11 8 7 6 6 6 7 8 7 7 6 6 9 10 10 11 14 15 14 10 8 9 9 10 12 13 11 9 10 11 10 10 11 11 13 16 15 14 14 22 24 18 14 13 10 11 11 11 11 8
8 9 8 8 8 7 7 8 8 9 13 14 14 14 8 7 6 7 8 7 7 7 7 6 6 7 9 11 13 14 16 15 14 11 11 11 11 12 13 9 9 10 10 11 11 12 13 13 12 11 11 11 12 13 15 13 12 12 13 11 10 10 10
8 8 8 7 8 7 7 7 7 9 13 13 13 13 10 7 7 7 8 8 8 7 7 7 6 6 7 9 12 15 17 17 18 18 13 12 12 12 12 13 10 12 15 12 13 13 13 12 12 12 11 11 11 11 13 11 11 10 12 10 11 11 11
7 6 7 7 7 7 7 7 8 8 9 11 11 12 14 9 8 9 8 9 8 8 7 7 7 6 7 9 11 13 15 17 17 19 14 13 18 18 18 13 12 11 11 11 11 11 11 12 12 12 11 11 10 10 11 12 11 10 9 7 9 11 11
6 7 7 7 7 6 6 7 6 8 8 10 12 14 14 13 10 11 8 7 8 8 8 7 6 6 8 11 13 14 16 16 18 16 13 18 18 17 17 15 10 11 11 11 11 12 12 12 12 12 12 12 11 10 10 10 10 9 11 11 6 0 1
8 8 8 8 8 7 6 6 6 7 9 9 12 13 13 12 12 12 8 8 7 7 7 6 6 7 12 14 15 16 16 16 15 12 16 17 17 17 16 10 10 10 10 11 11 11 12 12 11 11 11 11 11 12 11 10 6 7 8 4 4 3 4
7 8 8 8 8 8 7 7 7 7 8 10 11 11 11 12 13 13 13 8 8 8 6 9 13 14 14 14 15 16 15 13 13 15 15 16 16 15 9 9 8 9 10 11 11 11 11 11 12 12 12 9 10 7 1 5 4 5 6 6 7 6 5
7 7 8 8 8 8 8 8 7 7 7 7 8 7 8 11 12 13 13 13 10 12 14 14 13 14 13 12 11 10 9 10 10 15 18 18 17 11 9 9 9 9 10 10 11 11 11 11 11 10 11 8 3 4 5 5 4 5 4 5 5 5 3
7 7 8 8 8 8 8 8 7 7 6 6 5 6 7 8 8 11 12 9 7 9 8 10 10 9 11 12 16 16 15 14 14 11 10 9 8 8 8 8 8 8 9 11 11 11 11 10 11 11 3 2 5 7 5 5 6 6 6 7 6 6 5
7 7 8 8 8 8 8 8 7 6 6 6 7 8 8 8 8 8 8 8 8 9 10 10 11 11 9 8 8 8 7 7 7 8 8 7 7 7 7 8 11 11 10 10 10 10 11 11 10 8 7 9 8 7 7 6 7 8 9 8 9 7 6
8 8 8 8 9 9 9 9 8 6 7 10 13 12 11 9 9 8 9 10 14 12 11 10 8 8 8 7 8 8 7 7 7 7 7 7 7 7 7 6 5 5 6 7 7 8 9 9 10 9 7 6 6 6 5 6 8 7 7 9 9 9 9
9 9 9 10 9 9 10 9 8 13 16 17 17 17 17 15 16 15 13 14 18 14 10 9 8 8 7 8 7 8 7 7 7 6 7 7 7 6 6 6 6 6 5 5 6 7 7 7 7 6 6 6 6 5 5 5 6 8 7 9 9 9 9
14 15 15 12 10 11 15 14 15 15 16 17 17 17 17 16 15 15 15 14 10 7 7 7 7 8 7 7 7 7 7 7 7 7 6 7 7 6 6 6 6 5 4 4 6 5 5 5 5 5 6 5 6 6 5 5 4 6 7 8 8 8 9
14 14 14 15 14 12 9 11 13 15 16 17 18 17 16 16 16 16 15 13 13 8 7 8 8 7 7 7 7 7 6 6 6 6 6 7 6 6 6 6 5 4 4 6 6 5 4 4 4 4 4 3 3 3 5 5 5 6 7 7 7 7 7
14 13 13 14 14 14 13 13 14 16 16 16 16 16 16 16 16 15 13 12 8 7 8 7 7 7 7 6 7 6 6 6 6 6 6 6 6 7 7 6 5 4 5 5 5 5 5 4 4 3 2 2 2 4 4 5 5 5 6 6 6 5 3
11 12 12 12 12 12 13 13 14 15 15 15 15 15 15 13 10 13 14 11 7 7 7 7 6 6 6 6 6 6 6 6 6 6 6 6 6 6 7 7 7 5 6 5 5 5 5 4 3 1 3 3 3 3 4 4 4 5 5 6 6 5 4
8 9 10 8 8 9 12 12 13 13 14 15 14 13 11 10 8 8 6 5 5 6 6 6 6 6 6 6 6 6 6 6 6 6 6 6 6 6 6 7 6 6 6 5 5 5 5 4 3 3 2 3 3 3 5 5 4 4 5 6 5 5 4
9 8 9 12 11 11 10 10 12 13 14 14 13 9 7 6 6 6 6 5 5 5 5 5 6 6 6 5 5 5 5 6 6 6 5 6 6 6 6 6 6 5 5 5 5 5 5 4 4 4 3 4 3 2 4 3 2 3 2 3 3 3 4
Wind_Direction
13 10 11 17 22 21 14 3 335 293 248 235 232 233 236 223 207 217 224 220 222 210 214 221 223 225 223 215 219 225 221 219 218 215 221 223 223 225 220 219 228 239 247 243 194 142 156 153 157 192 202 204 197 195 201 213 223 223 221 223 227 228 221
14 14 18 22 21 21 22 13 7 352 310 271 252 245 236 229 225 227 230 231 232 222 211 217 224 225 222 214 217 223 224 222 216 217 218 221 222 225 220 214 220 233 243 247 222 210 151 155 187 213 190 201 201 203 191 204 213 219 219 221 224 228 229
14 15 19 23 22 22 22 18 13 5 359 328 293 275 263 252 244 241 239 239 241 238 221 219 224 225 219 208 215 219 224 221 219 215 217 219 221 225 226 223 219 229 239 241 242 232 210 190 185 206 201 193 212 208 194 204 212 211 213 222 226 230 234
11 14 16 17 17 18 16 16 13 13 18 12 359 331 293 275 257 250 249 251 251 246 236 223 227 228 217 212 218 222 217 216 215 216 218 216 221 224 225 225 225 226 240 246 252 237 231 217 200 210 216 181 193 202 201 210 217 212 216 215 221 232 236
11 10 12 13 11 8 8 7 4 5 6 8 7 5 358 339 308 278 270 263 257 255 248 239 235 236 219 210 221 223 222 221 210 212 217 220 218 221 223 222 226 231 231 239 243 247 235 227 225 223 208 195 200 206 214 217 220 219 218 223 225 226 233
8 5 5 6 4 2 1 359 360 358 356 355 357 359 356 351 349 338 314 289 280 273 269 263 256 249 238 221 219 227 227 218 212 215 221 221 221 221 218 220 225 227 230 232 238 239 243 226 222 222 219 200 199 208 207 211 213 220 231 229 227 227 224
4 359 0 358 359 358 355 353 355 355 351 350 350 347 345 342 341 340 342 347 337 321 299 284 275 268 260 254 245 239 236 232 228 224 224 222 221 222 220 221 225 226 227 230 236 237 236 240 228 225 232 202 192 218 224 220 210 222 214 211 222 235 219
357 354 356 354 353 351 349 347 351 354 353 349 344 339 335 330 332 332 329 333 346 353 353 344 329 314 301 294 284 271 259 254 248 240 235 233 222 223 224 230 233 228 227 232 233 235 234 228 235 222 225 164 166 213 230 221 219 228 211 203 213 221 224
354 353 350 352 349 347 343 342 345 355 344 337 337 336 328 322 317 314 316 318 316 333 8 355 2 360 343 331 313 299 288 277 275 260 253 242 221 216 224 230 233 232 232 236 235 236 229 232 229 225 210 199 206 209 218 205 205 234 235 222 214 217 213
349 353 348 347 344 342 338 335 336 336 332 334 333 329 323 315 304 297 294 293 294 290 276 245 321 323 324 323 321 315 303 290 275 266 260 264 253 233 228 229 230 234 235 235 234 233 227 225 228 222 216 209 210 214 218 217 204 222 228 229 238 234 196
344 352 346 344 340 336 332 328 328 329 332 331 329 327 318 310 304 297 289 280 275 280 281 276 269 270 264 289 302 301 299 294 291 285 275 262 260 261 251 237 233 235 235 237 238 238 232 231 232 226 215 211 209 206 209 219 217 221 221 219 226 237 209
341 343 340 337 333 330 325 324 324 328 328 325 324 322 315 308 300 295 291 287 282 283 285 286 285 286 263 242 260 278 279 286 293 289 281 274 266 258 254 248 244 243 238 233 239 243 238 236 235 231 212 215 206 210 212 217 224 221 216 219 225 231 236
334 334 335 330 327 323 321 320 318 323 322 321 321 322 320 306 301 293 288 291 289 287 290 292 292 292 287 244 252 267 270 286 291 287 283 278 271 265 259 254 249 245 246 251 249 247 246 236 239 234 227 213 192 199 214 211 220 223 221 222 228 232 234
324 327 325 323 320 316 315 313 312 317 317 319 324 326 325 318 336 326 308 299 289 285 289 293 291 291 290 289 279 280 279 292 292 289 289 281 269 261 259 256 254 252 249 246 247 251 253 248 234 244 245 207 179 200 211 212 219 213 217 218 226 229 231
320 315 313 312 314 312 310 306 309 313 315 322 325 321 320 310 311 304 292 287 301 310 302 295 291 283 279 279 276 279 287 290 286 286 284 283 279 270 261 255 251 244 241 243 241 245 251 258 248 248 253 237 199 203 216 214 213 206 211 224 252 34 145
309 307 306 306 305 302 302 302 309 313 317 321 320 317 315 310 305 298 292 292 293 299 297 292 289 286 277 269 269 268 272 283 287 285 280 278 278 279 276 265 256 256 251 246 247 248 251 253 252 247 248 240 224 207 214 223 229 231 223 221 224 234 220
306 307 311 309 306 303 300 302 305 312 317 317 315 316 310 306 296 290 290 287 289 290 291 298 300 297 290 283 269 252 271 289 287 276 274 279 283 284 282 278 275 271 267 260 256 256 256 257 256 255 254 252 246 237 211 213 225 225 209 213 222 229 223
307 305 308 306 302 299 302 301 304 309 312 313 313 315 311 300 293 287 285 284 292 297 295 289 288 290 302 301 280 275 285 285 276 273 289 298 296 293 288 283 284 279 268 264 261 260 261 262 263 261 258 254 250 246 220 201 223 218 197 210 214 227 222
305 306 306 299 300 301 299 297 303 308 313 314 316 316 305 305 303 310 323 308 299 296 294 291 290 297 297 294 289 288 288 280 265 276 286 291 288 283 280 279 283 280 277 276 270 264 260 260 259 258 257 257 253 248 237 213 218 211 206 207 216 221 222
309 305 301 299 298 295 294 296 298 308 312 315 315 311 311 312 310 309 306 303 297 294 292 289 286 283 285 296 305 313 309 305 289 278 285 285 281 276 274 278 278 277 276 278 279 273 265 261 258 257 254 249 247 246 241 230 214 215 223 211 210 213 210
300 300 295 295 293 291 290 287 300 307 311 313 309 306 313 313 310 305 302 298 294 291 287 286 288 286 295 307 313 313 310 301 287 282 279 273 268 268 271 275 276 276 277 274 272 273 273 268 263 258 254 250 246 242 240 232 214 209 213 207 209 214 215
295 292 294 294 291 284 288 293 303 301 310 310 309 309 311 310 300 298 298 295 289 285 285 285 281 284 298 304 300 298 294 286 280 276 272 268 267 269 275 282 283 282 279 275 274 269 262 260 256 257 254 250 246 242 238 240 223 201 207 199 206 210 214
284 297 298 296 296 292 296 297 294 299 306 308 310 311 309 303 302 306 308 297 291 285 280 280 284 290 295 299 302 300 300 300 297 289 278 275 275 276 281 286 283 279 275 270 268 264 261 256 252 249 250 249 249 242 238 239 228 209 217 218 215 171 308
309 309 307 306 308 306 302 300 300 300 300 302 308 308 309 312 311 312 311 304 294 280 277 280 289 299 304 304 303 302 303 303 300 291 285 281 280 281 284 281 279 274 272 269 266 263 261 263 260 259 254 251 246 242 234 229 212 211 218 202 86 58 38
306 305 305 305 303 306 308 305 307 305 302 304 305 307 309 310 311 313 311 306 297 298 295 296 301 303 302 302 302 302 303 300 296 293 292 289 285 282 276 273 270 273 271 268 266 265 265 260 256 255 258 262 258 249 98 87 59 54 59 77 84 66 57
303 302 301 300 301 301 301 303 301 299 302 306 304 300 304 307 309 308 309 306 296 294 296 297 296 294 294 296 299 302 299 294 290 292 291 288 282 276 268 266 269 269 267 264 263 261 261 263 266 264 261 259 210 169 188 165 130 136 126 138 139 115 73
297 298 301 298 298 298 299 298 298 298 300 306 312 317 316 315 310 309 308 303 297 300 298 296 294 291 295 293 293 289 283 278 276 275 273 271 265 261 264 267 265 264 266 267 265 264 262 264 261 261 239 166 217 228 206 173 165 159 172 164 165 139 128
295 296 297 299 299 299 298 296 294 299 300 311 320 315 311 308 308 306 303 303 302 300 300 298 291 286 283 290 296 296 296 290 281 275 273 270 268 270 272 273 273 270 265 262 261 263 264 263 265 256 238 239 230 225 211 185 184 181 178 178 168 153 164
290 289 292 294 297 298 295 294 294 288 313 314 307 303 303 304 302 303 302 299 298 297 290 284 280 278 286 293 299 303 301 296 293 288 284 276 267 264 265 268 274 284 284 285 283 274 268 266 261 254 243 231 218 203 189 186 191 198 170 182 180 175 168
282 289 296 296 290 288 287 289 297 310 309 302 301 300 298 295 297 297 297 297 297 288 279 276 276 282 288 294 299 300 298 299 300 303 298 291 278 272 268 272 277 281 292 299 289 277 274 268 259 242 232 220 214 198 188 196 183 193 184 175 178 176 182
284 290 292 291 294 290 291 298 305 306 304 302 299 299 300 301 300 298 296 305 320 306 284 280 281 283 288 291 294 296 295 298 302 299 300 298 296 287 278 272 272 281 304 299 293 293 284 274 270 258 244 223 213 198 190 178 185 189 187 186 185 177 182
286 289 294 296 296 297 296 299 302 304 302 299 298 300 302 303 300 299 302 306 305 295 284 279 279 282 287 291 293 290 293 298 298 299 299 299 297 290 284 283 278 316 325 293 291 293 299 292 275 257 252 243 212 184 191 182 185 181 187 189 198 190 179
276 284 293 298 297 295 296 298 302 302 301 301 301 302 301 302 304 302 302 305 296 279 281 281 280 280 284 287 288 290 294 295 298 297 299 299 296 296 294 292 309 322 285 276 282 291 288 292 286 274 248 233 210 199 185 185 178 187 180 187 178 167 126
275 278 284 291 291 290 294 300 305 306 306 305 303 302 304 310 308 304 298 285 275 282 279 281 279 279 279 284 288 291 292 293 295 300 299 299 296 295 298 299 297 287 277 276 282 273 271 278 277 269 244 228 208 195 188 179 179 178 175 186 185 170 133
291 284 278 284 293 289 292 301 306 308 307 304 299 300 313 320 307 297 297 287 275 277 279 279 279 280 283 286 289 292 296 293 292 294 298 301 306 306 303 302 298 290 285 285 283 280 273 279 286 278 262 247 216 203 196 196 184 187 187 187 178 174 142
291 291 291 283 276 279 290 300 307 308 306 301 298 311 333 317 300 303 302 305 299 290 288 289 285 283 281 285 286 292 295 294 293 291 294 303 307 305 307 305 301 298 295 290 284 281 288 291 276 271 265 257 246 228 224 218 185 185 168 178 163 178 175